Regional Weather Roundup
Issued by NWS Charleston, SC

Current Version | Previous Version | Text Only | Print | Product List | Glossary Off
Versions: 1 2 3 4 5 6 7 8 9 10 11 12 13 14 15 16 17 18 19 20 21 22 23 24 25 26 27 28 29 30 31 32 33 34 35 36 37 38 39 40 41 42 43 44 45 46 47 48 49 50

000
ASUS42 KCHS 280725
RWRCHS

REGIONAL WEATHER ROUNDUP
NATIONAL WEATHER SERVICE CHARLESTON SC
300 AM EDT MON JUL 28 2014

NOTE: "FAIR" INDICATES FEW OR NO CLOUDS BELOW 12,000 FEET WITH NO
SIGNIFICANT WEATHER AND/OR OBSTRUCTIONS TO VISIBILITY.

NOT ALL STATIONS ARE QUALITY CONTROLLED BY THE NATIONAL
WEATHER SERVICE. USE DATA WITH CAUTION...ESPECIALLY
DEWPOINT OBSERVATIONS.

SCZ027-030-031-034>040-042>050-280800-
...SOUTH CAROLINA...

CITY           SKY/WX    TMP DP  RH WIND       PRES   REMARKS
N CHARLESTON   MOCLDY    83  74  74 SW8       29.88F
WATERFRONT PRK   N/A     84 N/A N/A SW5         N/A
FORT JOHNSON   NOT AVBL
MOUNT PLEASANT FAIR      84  79  84 SW6       29.87F HAZE    HX  96
JOHNS ISLAND   SUNNY     84  73  70 SW6       29.89S HX  91
PINOPOLIS        N/A     84  75  74 SW8       29.79F HX  92
MONCKS CORNER    N/A     81  75  83 SW7       29.87S
SUMMERVILLE    NOT AVBL
BEAUFORT MCAS  MOCLDY    83  72  69 NW12      29.90S
BEAUFORT ARPT  FAIR      82  73  74 SW12      29.90S
HILTON HEAD IS PTCLDY    84  75  74 SW9       29.92S HX  92
GEORGETOWN     NOT AVBL
WALTERBORO     CLOUDY    81  73  78 SW6       29.89F
ORANGEBURG     CLOUDY    78  73  84 SW7       29.87F
BARNWELL       FAIR      81  73  78 SW5       29.89F
AIKEN          FAIR      81  73  78 SW9       29.92F
MANNING        FAIR      82  75  78 SW7       29.85F
KINGSTREE      NOT AVBL
COLUMBIA       MOCLDY    84  72  67 SW9       29.85F
SUMTER         CLOUDY    82  74  77 SW10      29.83F
FLORENCE       CLOUDY    81  73  76 SW8       29.82F
MYRTLE BEACH   CLOUDY    82  73  74 SW9       29.84S
N MYRTLE BEACH CLOUDY    84  73  69 W9        29.83F HX  90

$$

GAZ063-065-086>088-099>101-113>116-118-119-134-136>141-150-280800-
...GEORGIA...

CITY           SKY/WX    TMP DP  RH WIND       PRES   REMARKS
SAVANNAH ARPT  MOCLDY    82  72  71 SW8       29.92S
HUNTER AAF     MOCLDY    82  74  77 SW9       29.91S
FORT STEWART   PTCLDY    82  74  77 SW8       29.92S
STATESBORO     NOT AVBL
SYLVANIA       PTSUNNY   80  76  87 SW3       29.92S
CLAXTON        FAIR      81  79  94 CALM      29.93S
THOMSON        PTCLDY    82  78  88 SW5       29.95S HX  90
AUGUSTA-BUSH   PTCLDY    81  73  76 SW6       29.88F
AUGUSTA-DANIEL PTCLDY    83  73  72 VRB5      29.90F
SWAINSBORO     FAIR      81  77  89 W5        29.93F
VIDALIA          N/A     81  75  83 SW6       29.94S
ALMA           CLEAR     80  75  84 SW7       29.96S
WAYCROSS       CLEAR     83  80  90 W8        29.96S HX  95
JESUP          NOT AVBL
BRUNSWICK      PTCLDY    81  73  78 SW9       29.96S
SAINT SIMONS   PTCLDY    81  76  84 SW10      29.95S

$$

SCZ027-028-034-036>038-045-046-048>050-GAZ119-141-280800-
...LAKE AND SUPPLEMENTAL COASTAL OBSERVATIONS...

STATION/POSITION TIME  TEMP    WIND        PRES    WAVE   SWELL
                       AIR SEA DIR/SP/G            HT/PER HT/PER/DIR
                 (UTC) (F)     (DEG/KT/KT) (MB)    (FT/S) (FT/S/D)
UPR LAKE MARION  NOT AVBL
WINYAH BAY       0700   83     240/  8     1011.0S
LAKE MURRAY      0600   85     250/ 12/ 16 1010.2F
ACE BASIN NERRS  0700   83     250/  3     1012.0S
FORT PULASKI     0700   84     240/ 11/ 15 1013.2F
SAPELO ISLAND    0700   83     240/ 12     1014.0S

$$

ANZ835-935-AMZ111-154-330-350-352-354-374-450-454-472-280800-
...C-MAN AND BUOY OBSERVATIONS...

STATION/POSITION TIME  TEMP    WIND        PRES    WAVE   SWELL
                       AIR SEA DIR/SP/G            HT/PER HT/PER/DIR
                 (UTC) (F)     (DEG/KT/KT) (MB)    (FT/S) (FT/S/D)
FOLLY BEACH CMAN 0700   84     240/  6/  8 1012.4F
BUOY 41004       0700   84 83  220/ 19/ 23 1011.1F   5/ 6   2/10
BUOY 41008       0700   84 85  250/ 19/ 21 1013.5R   3/ 4   2/130/ 8
5E ST. MARYS GA  0700      84                N/A     2/ 3
FRYING PAN BUOY  NOT AVBL
BUOY 41025       0700          VRB 21/ 25  1008.2F   5/ 5   2/120/10
CAPE LOOKOUT NC  0700   82     220/ 16/ 21 1008.5F
BUOY 41002       0620   81 80  240/ 17/ 21 1014.4F   6/ 6   2/130/ 9
BUOY 41010       0700   84 84  220/ 16/ 19 1016.3F   3/ 9   2/130/ 9
BUOY 41012       NOT AVBL
ST AUGUSTINE FL  0700   79     240/  6/ 10 1015.7F
CAPERS NEARSHORE 0600   85     260/ 16/ 17   N/A
FRIPP NEARSHORE  NOT AVBL


$$



USA.gov is the U.S. government's official web portal to all federal, state and local government web resources and services.